265  
ASUS45 KBOI 310710  
RWRID  
 
IDAHO REGIONAL WEATHER ROUNDUP  
NATIONAL WEATHER SERVICE BOISE ID  
100 AM MDT SUN MAY 31 2020  
 
NOTE: "FAIR" INDICATES FEW OR NO CLOUDS BELOW 12000 FEET  
WITH NO SIGNIFICANT WEATHER AND/OR S TO VISIBILITY
 
 
IDZ012-014-310800-  
SOUTHWEST IDAHO  
 
 
CITY SKY/WX TMP DP RH WIND PRES REMARKS
 
BOISE MOCLDY 70 47 43 NW10 29.72R  
CALDWELL MOCLDY 70 49 47 SW9 29.71R  
MOUNTAIN HOME MOCLDY 68 46 44 NW15 29.73R  

 
 
IDZ016-017-310800-  
SOUTHCENTRAL IDAHO  
 
 
CITY SKY/WX TMP DP RH WIND PRES REMARKS
 
BURLEY MOCLDY 67 48 50 SW3 29.72S  
JEROME NOT AVBL  
TWIN FALLS PTCLDY 68 40 35 SW22 29.76R  

 
 
IDZ019>023-310800-  
SOUTHEAST IDAHO  
 
 
CITY SKY/WX TMP DP RH WIND PRES REMARKS
 
IDAHO FALLS CLOUDY 74 44 34 SE15G25 29.86F  
POCATELLO MOCLDY 68 44 42 VRB3 29.82S  
REXBURG CLOUDY 72 45 37 SE7 29.90S  

 
 
IDZ006-010-011-018-031-032-310800-  
CENTRAL IDAHO MOUNTAINS  
 
 
CITY SKY/WX TMP DP RH WIND PRES REMARKS
 
MCCALL MOCLDY 56 48 74 CALM 29.74S  
HAILEY MOCLDY 72 41 33 E3 29.81F  
STANLEY N/A 54 45 71 E3 29.92R  
SALMON MOCLDY 67 47 48 S7 29.74S  
CHALLIS MOCLDY 69 42 37 S12 29.82R  

 
 
IDZ002-004-006-007-026-310800-  
NORTHERN IDAHO  
 
 
CITY SKY/WX TMP DP RH WIND PRES REMARKS
 
LEWISTON CLOUDY 67 52 58 NW13 29.68R  
LOWELL N/A 72 59 63 VRB3 29.65R  
COEUR D'ALENE CLOUDY 57 54 89 SW8 29.73R  
MULLAN PASS PTCLDY 55 49 80 CALM 29.81F  

 
 
 
CLICK HERE TO GO TO PREVIOUS BULLETINS.

The Nexlab ID Page Main Text Page